This demonstration page uses our WeatherBlox Daily Observations layout. Learn more.

38.89511, -77.03637

Hourly Observations for October 29, 2018

Temp ( °F °C ) Dew Point ( °F °C ) Humidity (%) Winds ( mph kmh ) Pressure ( in mb ) Visibility ( mi km ) Precip ( " mm )
12:52 am 00:52 Mostly Cloudy 54 12.2 46 7.8 75 75 SW 8 13 29.75 1008 10 16.0934 0 0.0254
1:52 am 01:52 Partly Cloudy 53 11.7 46 7.8 77 77 SW 8 13 29.75 1007 10 16.0934 0 0
2:52 am 02:52 Mostly Cloudy 51 10.6 45 7.2 80 80 SW 5 7 29.76 1008 10 16.0934 0 0
3:52 am 03:52 Cloudy 53 11.7 46 7.8 77 77 SW 10 17 29.77 1008 10 16.0934 0 0
4:52 am 04:52 Mostly Cloudy 52 11.1 45 7.2 77 77 WSW 8 13 29.78 1008 10 16.0934 0 0
5:52 am 05:52 Mostly Cloudy 52 11.1 44 6.7 75 75 S 3 6 29.8 1009 10 16.0934 0 0
6:52 am 06:52 Mostly Cloudy 52 11.1 44 6.7 75 75 Calm 29.83 1010 10 16.0934 0 0
7:52 am 07:52 Mostly Cloudy 51 10.6 43 6.1 74 74 SW 5 7 29.85 1011 10 16.0934 0 0
8:52 am 08:52 Mostly Sunny 54 12.2 43 6.1 67 67 SW 8 13 29.89 1012 10 16.0934 0 0
9:52 am 09:52 Mostly Sunny 58 14.4 42 5.6 56 56 SW 10 17 29.91 1013 10 16.0934 0 0
10:52 am 10:52 Mostly Cloudy 59 15 41 5 51 51 W 13 20 29.92 1013 10 16.0934 0 0
11:52 am 11:52 Mostly Cloudy 59 15 41 5 51 51 WSW 9 15 29.93 1013 10 16.0934 0 0
12:52 pm 12:52 Mostly Cloudy 61 16.1 42 5.6 50 50 WNW 14 22 29.93 1014 10 16.0934 0 0
1:52 pm 13:52 Mostly Cloudy 58 14.4 43 6.1 58 58 WNW 16 26 29.94 1014 10 16.0934 0 0.0254
2:52 pm 14:52 Mostly Cloudy 61 16.1 41 5 48 48 WNW 17 28 29.96 1015 10 16.0934 0 0
3:52 pm 15:52 Partly Cloudy 60 15.6 37 2.8 42 42 W 13 20 29.98 1015 10 16.0934 0 0
4:52 pm 16:52 Mostly Cloudy 56 13.3 34 1.1 44 44 W 10 17 30 1016 10 16.0934 0 0
5:52 pm 17:52 Mostly Cloudy 56 13.3 35 1.7 46 46 WNW 9 15 30.02 1017 10 16.0934 0 0
6:52 pm 18:52 Mostly Clear 55 12.8 35 1.7 47 47 W 10 17 30.04 1017 10 16.0934 0 0
7:52 pm 19:52 Partly Cloudy 54 12.2 36 2.2 51 51 W 8 13 30.05 1018 10 16.0934 0 0
8:52 pm 20:52 Mostly Clear 52 11.1 36 2.2 55 55 WSW 3 6 30.06 1018 10 16.0934 0 0
9:52 pm 21:52 Clear 49 9.4 37 2.8 64 64 SSW 5 7 30.07 1018 10 16.0934 0 0
10:52 pm 22:52 Mostly Clear 49 9.4 38 3.3 66 66 W 7 11 30.08 1019 10 16.0934 0 0
11:52 pm 23:52 Mostly Clear 51 10.6 37 2.8 59 59 W 9 15 30.09 1019 10 16.0934 0 0

Powered by AerisWeather